Showing default

CHINASAT-9C, 64470

Orbit data source: Space-Track

CHINASAT-9C, 64470 is a payload satellite owned by CAST (CN) in GEO that was launched on Fri, 20 Jun 2025 UTC via a CHANG ZHENG 3B launch vehicle from the Xichang Space Center, China (XSC). Payload-class satellites include a variety of spacecraft equipped with specific instruments for various scientific and technological missions. These include communications satellites like Starlink; space stations such as the ISS; scientific satellites like the Hubble; Earth observation satellites from companies like Planet Labs, Umbra, and HawkEye 360; GPS; miniature CubeSats for education and research; and military/defense satellites.

Not visible in the next 10 days
Identifier
64470, 2025-132A
Orbit
GEO
Last TLE update
6 hours ago
Origin
Flag of CNCAST (CN / PRC)
Manufacturer
CAST
Mission
Spacecraft
Bus & Motor
DFH-4E, FY-25
Mass
5,500 kg wet, ~2,500 kg dry
Launch date (UTC)
2025-06-20 (1 month ago)
Launch vehicle
CHANG ZHENG 3B
Launch site
Xichang Space Center, China (XSC)
Object type
Payload
Rocket body
Debris
Shape & HBR
Unknown
Radar Cross Section
RCS unknown

Expand to show TLE details & history

TLE from 6 hours ago
0 CHINASAT-9C
1 64470U 25132A   25200.07474559 -.00000242  00000-0  00000+0 0  9992
2 64470   0.0535 247.2507 0001877  30.8423 138.1268  1.00271298   825
Epoch: 2025-07-19T01:47Z
TLE epoch observation values (Epoch: 2025-07-19T01:47:38.018Z)
Latitude
0.02143°
Longitude
92.21472°
Altitude
35,792.125 km
Speed
3.074 km/s
True Right ascension
03h 44m 57s
True Declination
0° 01' 17"
Sunlit
Object was in daylight at epoch
Visualization orbit readout
Latitude
-0.03008°
Longitude
-171.83259°
Altitude
35,790.918 km
Speed
3.074 km/s
Apparent Right ascension
10h 01m 38s
Apparent Declination
-4° 59' 27"
Sunlit
Object is in daylight
Visualization observer readout
Local Sidereal Time
20:59:34
Azimuth
334.11° NNW
Elevation
-52.377°
Doppler factor
1
Orbital elements
Apogee altitude
35,795.716 km
Perigee altitude
35,779.887 km
Semi-major axis
42,165.939 km
Eccentricity
0.00019
Inclination
0.0535°
RAAN
247.2507°
Arg. of periapsis
30.8423°
True anomaly
138.14115°
Mean anomaly
138.1268°
Eccentric anomaly
138.13398°
Mean motion
0.25067 °/min
Orbital period
1,436.16 mins
BSTAR
0
Loading maneuver chart data...
Loading SW <> Apogee altitude chart data...
Loading historical data...
Loading historical data...
Loading historical data...
Loading historical data...
Loading historical data...
Loading historical data...
Loading historical data...
Other satellites on launch #132 in the year 2025 (2025-06-20 UTC)
|